CAPE
1 11 2 0 0 0 0 0 0 0 0 0 0 0 0 0 0 0 0 0 0 0 223 878 1063 1089 935 1039 903 1298 1580 1556 1428 1449 1409 1431 1390 1269 1138 1171 1220 1086 1101 1184
7 4 0 0 0 0 0 0 0 0 0 0 0 0 0 0 0 0 0 0 0 0 0 137 709 883 1037 1210 1303 1116 1568 1492 1535 1498 1408 1288 1220 1119 1195 1217 1007 834 605 555
0 0 0 10 7 0 0 0 0 0 0 0 0 0 0 0 0 0 0 0 0 0 0 0 132 729 1052 1229 1260 1284 1095 1536 1542 1373 952 781 909 853 1065 1166 967 912 690 596
0 0 0 5 3 0 0 0 0 0 0 0 0 0 0 0 0 0 0 0 0 0 0 0 0 721 1165 995 766 793 816 1160 1242 1151 1279 1278 1320 1234 645 646 576 566 459 440
0 0 0 19 0 1 0 0 0 0 0 0 0 0 0 0 0 0 0 0 0 0 0 0 0 5 857 399 442 616 831 906 923 1228 1371 1174 1016 818 550 384 404 312 340 96
0 3 0 0 0 0 0 0 0 0 0 0 0 0 0 0 0 0 0 0 0 0 0 0 0 18 188 396 494 634 770 710 759 749 662 719 763 710 643 407 277 117 1 3
22 49 4 9 7 7 18 0 2 0 0 0 0 0 0 0 0 0 0 0 1 0 0 0 1 61 29 30 56 152 158 163 245 263 205 195 299 393 242 94 20 5 0 0
37 43 53 82 2 6 10 4 0 0 0 0 0 0 0 0 2 2 1 1 1 0 0 1 2 0 1 23 108 161 37 0 0 0 0 0 0 0 0 0 0 0 0 0
20 14 1 63 64 24 32 13 0 0 0 0 0 0 0 1 2 1 0 3 5 6 1 5 1 4 4 3 3 1 0 0 0 0 0 0 0 0 0 0 0 0 0 0
15 34 0 130 152 82 2 0 0 0 0 0 0 0 0 11 1 2 3 6 7 3 3 3 2 3 3 2 2 1 0 0 0 0 0 0 0 0 0 0 0 0 0 0
12 70 22 190 121 39 61 26 0 0 0 0 0 0 0 87 2 3 8 9 1 0 0 0 0 0 0 0 0 0 0 0 0 0 0 0 0 0 0 0 0 0 0 0
36 18 167 117 86 102 19 0 0 0 0 5 0 11 41 77 9 9 7 1 0 0 0 0 0 0 0 0 0 0 0 0 0 0 0 0 0 0 0 0 0 0 0 0
62 11 117 88 1 12 53 0 1 0 2 34 8 10 32 57 7 1 0 0 0 0 0 0 0 0 0 0 0 0 0 0 0 0 0 0 0 0 0 0 0 0 0 0
95 23 0 67 17 2 14 3 0 0 8 25 75 6 65 31 5 1 0 0 0 0 0 0 0 0 0 0 0 0 0 0 0 0 0 0 0 0 0 0 0 0 0 0
66 101 6 1 3 0 4 0 0 0 5 13 103 85 76 4 0 0 0 0 0 0 0 0 0 0 0 0 0 0 0 0 0 0 0 0 0 0 0 0 0 0 0 0
10 179 83 15 16 4 2 0 0 0 91 121 161 175 112 1 0 0 0 0 0 0 0 0 0 0 0 0 0 0 0 0 0 0 0 0 0 0 0 0 0 0 0 0
7 59 247 125 32 15 33 5 3 30 147 265 308 65 0 0 0 1 0 0 0 0 0 0 0 0 0 0 0 0 0 0 0 0 0 0 0 1 2 0 0 0 0 1
8 63 94 46 33 18 111 232 55 154 191 217 253 31 0 0 0 0 0 0 0 0 0 0 0 0 0 0 0 0 0 0 0 0 0 0 2 5 2 0 0 0 2 4
0 17 142 166 139 185 262 182 157 163 210 230 56 0 0 0 0 1 0 0 0 0 0 0 0 0 0 0 0 0 0 0 0 0 0 0 4 6 1 0 0 4 6 7
1 0 113 105 124 43 237 164 10 142 8 0 0 0 0 0 0 1 0 0 0 0 0 0 0 0 0 2 2 0 0 0 0 0 0 0 0 1 0 0 1 3 1 0
3 2 48 19 18 62 1 0 0 97 60 0 0 2 0 0 0 0 1 0 0 0 0 0 0 0 3 5 4 3 3 2 2 0 0 0 1 0 0 1 2 1 0 1
9 5 7 5 34 104 1 0 20 1 1 0 0 0 0 0 0 1 0 0 1 1 0 0 4 6 4 3 3 4 5 3 2 0 2 3 2 1 0 0 1 0 0 0
2 9 6 9 8 10 6 4 0 0 0 0 0 0 0 0 0 0 0 1 1 1 3 5 6 2 8 7 8 3 5 3 5 5 7 3 2 0 0 1 1 0 0 0
8 1 3 0 6 11 8 3 1 0 1 1 0 1 0 0 0 1 2 3 4 6 6 6 5 6 7 1 3 4 7 5 6 5 6 6 2 0 0 1 2 0 0 0
22 6 5 14 12 2 8 5 2 3 2 0 0 0 0 0 1 2 4 5 4 6 5 3 8 5 2 3 7 9 9 4 4 3 4 8 8 0 0 2 3 0 0 0
11 12 11 12 3 1 7 4 0 0 0 0 0 0 0 0 0 0 1 3 5 6 7 5 2 4 6 6 7 9 10 10 5 4 6 11 15 5 0 0 0 0 0 0
CIN
-1 0 0 0 0 0 0 0 0 0 0 0 0 0 0 0 0 0 0 0 0 0 -103 -154 -210 -217 -250 -234 -283 -221 -161 -163 -152 -140 -119 -90 -97 -95 -95 -81 -78 -89 -84 -45
0 0 0 0 0 0 0 0 0 0 0 0 0 0 0 0 0 0 0 0 0 0 0 -179 -210 -294 -274 -226 -230 -267 -183 -195 -186 -153 -130 -130 -115 -116 -99 -90 -107 -107 -99 -92
0 0 0 0 0 0 0 0 0 0 0 0 0 0 0 0 0 0 0 0 0 0 0 0 -171 -264 -269 -287 -308 -269 -278 -179 -156 -169 -207 -217 -163 -156 -102 -76 -79 -65 -69 -59
0 0 0 0 0 0 0 0 0 0 0 0 0 0 0 0 0 0 0 0 0 0 0 0 0 -171 -249 -262 -365 -369 -342 -253 -216 -198 -147 -126 -100 -76 -149 -142 -160 -131 -136 -107
0 0 0 0 0 0 0 0 0 0 0 0 0 0 0 0 0 0 0 0 0 0 0 0 0 -241 -220 -402 -384 -356 -301 -279 -269 -179 -117 -123 -119 -146 -216 -248 -224 -243 -182 -284
0 0 0 0 0 0 0 0 0 0 0 0 0 0 0 0 0 0 0 0 0 0 0 0 0 -375 -371 -352 -363 -336 -285 -284 -248 -239 -241 -206 -181 -185 -188 -231 -247 -333 0 -334
0 0 0 0 0 0 0 0 0 0 0 0 0 0 0 0 0 0 0 0 0 0 0 0 0 -171 -189 -188 -496 -452 -454 -473 -427 -384 -376 -364 -306 -255 -277 -339 -158 -152 0 0
0 0 0 0 0 0 0 0 0 0 0 0 0 0 0 0 0 0 0 0 0 0 0 0 0 0 -99 -507 -421 -401 -495 0 0 0 0 0 0 0 0 0 0 0 0 0
0 0 0 0 0 0 -1 0 0 0 0 0 0 0 0 0 0 0 0 0 0 0 0 0 0 0 0 0 0 0 0 0 0 0 0 0 0 0 0 0 0 0 0 0
0 0 0 0 -1 0 -4 0 0 0 0 0 0 0 0 -122 0 0 0 0 0 0 0 0 0 0 0 0 0 0 0 0 0 0 0 0 0 0 0 0 0 0 0 0
-2 -1 0 -2 0 -1 0 0 0 0 0 0 0 0 0 -108 -80 0 0 0 0 0 0 0 0 0 0 0 0 0 0 0 0 0 0 0 0 0 0 0 0 0 0 0
0 -19 0 0 -3 0 0 0 0 0 0 -40 0 -23 -94 -124 -129 0 0 0 0 0 0 0 0 0 0 0 0 0 0 0 0 0 0 0 0 0 0 0 0 0 0 0
-3 -1 0 -2 -9 -9 0 0 -3 -10 -17 -17 -9 -13 -86 -102 0 0 0 0 0 0 0 0 0 0 0 0 0 0 0 0 0 0 0 0 0 0 0 0 0 0 0 0
-15 -8 -3 -7 -56 0 0 0 0 0 -11 -40 -38 0 -42 -98 0 0 0 0 0 0 0 0 0 0 0 0 0 0 0 0 0 0 0 0 0 0 0 0 0 0 0 0
-7 -3 -1 -47 -60 0 0 0 0 0 -44 -9 -88 -108 -79 0 0 0 0 0 0 0 0 0 0 0 0 0 0 0 0 0 0 0 0 0 0 0 0 0 0 0 0 0
-4 0 -19 -39 -65 -9 -16 -2 0 0 -82 -98 -88 -24 -50 0 0 0 0 0 0 0 0 0 0 0 0 0 0 0 0 0 0 0 0 0 0 0 0 0 0 0 0 0
0 -27 -2 -1 -19 -1 -3 -2 -3 -36 -88 -95 -50 -188 0 0 0 0 0 0 0 0 0 0 0 0 0 0 0 0 0 0 0 0 0 0 0 0 0 0 0 0 0 0
-6 -34 -14 -3 -2 -1 -9 -95 -14 -47 -93 -118 -166 -295 0 0 0 0 0 0 0 0 0 0 0 0 0 0 0 0 0 0 0 0 0 0 0 0 0 0 0 0 0 0
0 -47 -1 0 0 0 -8 -53 -58 -57 -65 -111 -150 0 0 0 0 0 0 0 0 0 0 0 0 0 0 0 0 0 0 0 0 0 0 0 0 0 0 0 0 0 -9 -20
-2 0 -47 -1 -5 -1 -4 -46 -144 -126 -23 0 0 0 0 0 0 0 0 0 0 0 0 0 0 0 0 0 0 0 0 0 0 0 0 0 0 0 0 0 0 0 0 0
0 0 -30 -48 -35 -4 0 0 0 -37 -70 0 0 0 0 0 0 0 0 0 0 0 0 0 0 0 0 0 0 0 0 0 0 0 0 0 0 0 0 0 0 0 0 0
0 0 -5 -22 -21 0 0 0 -14 -21 0 0 0 0 0 0 0 0 0 0 0 0 0 0 0 0 0 0 0 0 0 0 0 0 0 0 0 0 0 0 0 0 0 0
0 0 0 0 0 0 0 0 -1 0 0 0 0 0 0 0 0 0 0 0 0 0 0 0 0 0 0 0 0 0 0 0 0 0 0 0 0 0 0 0 0 0 0 0
0 0 0 0 0 0 0 0 0 0 0 0 0 0 0 0 0 0 0 0 0 0 0 0 0 0 0 0 0 0 0 0 0 0 0 0 0 0 0 0 0 0 0 0
0 0 0 0 0 0 0 0 0 0 0 0 0 0 0 0 0 0 0 0 0 0 0 0 0 0 0 0 0 0 0 0 0 0 0 0 0 0 0 0 0 0 0 0
0 0 0 0 0 0 0 0 0 0 0 0 0 0 0 0 0 0 0 0 0 0 0 0 0 0 0 0 0 0 0 0 0 0 0 0 0 0 0 0 0 0 0 0
Wind_Speed
15 13 27 32 27 17 12 11 19 11 7 17 18 14 16 12 7 11 12 8 8 12 13 5 8 11 11 12 13 12 12 12 9 7 6 6 6 4 4 4 5 4 3 5
13 29 25 19 23 20 9 13 13 9 12 14 12 15 16 12 10 10 12 11 11 11 12 9 7 9 13 14 12 12 12 12 10 7 4 2 4 3 2 3 3 2 3 4
21 12 25 22 21 25 23 12 11 10 9 5 10 9 11 10 11 8 11 11 10 12 13 13 9 10 8 10 11 10 10 9 8 8 6 5 3 2 2 3 2 4 7 7
18 23 20 26 25 23 24 20 11 9 12 7 6 4 11 15 14 10 13 10 9 9 9 9 9 10 12 8 7 9 10 9 8 9 7 6 3 3 2 1 1 3 4 5
16 16 25 25 26 24 13 20 16 10 8 4 7 6 5 5 13 10 3 2 1 3 5 7 7 3 4 7 8 8 9 10 10 9 7 5 4 2 3 3 4 4 5 6
20 12 21 24 23 24 14 21 15 7 5 9 10 8 8 7 4 6 4 3 4 4 4 2 4 8 10 10 11 10 11 9 6 5 6 6 7 5 4 4 4 4 4 4
23 20 20 19 23 22 22 26 12 11 9 7 13 11 2 2 1 2 4 4 5 6 8 9 10 11 11 12 12 11 12 12 11 11 10 9 10 9 10 6 7 4 4 6
14 20 24 21 25 19 27 25 11 15 14 13 10 11 5 2 4 5 7 8 9 11 11 13 12 13 13 13 14 14 15 15 14 14 14 12 12 8 8 8 6 6 6 7
15 16 24 21 24 23 29 26 11 6 4 9 9 3 3 4 7 8 10 11 12 12 14 15 16 16 16 16 16 16 17 17 15 15 13 13 11 10 10 10 9 7 7 6
14 12 27 17 25 24 28 23 11 7 11 12 8 7 8 11 10 11 12 12 13 15 17 18 18 18 17 17 16 16 15 15 14 13 12 11 11 11 10 9 9 8 7 7
2 9 22 17 13 27 21 22 10 6 2 7 10 6 1 12 14 15 14 13 14 16 17 17 17 16 16 17 16 15 13 14 13 13 13 12 11 10 10 9 8 8 7 8
4 2 13 11 5 22 25 24 17 7 7 2 5 4 2 12 13 15 16 16 17 17 17 16 16 16 16 16 15 14 12 13 13 12 12 11 10 9 9 8 8 7 7 7
4 3 7 11 5 5 26 27 17 6 4 6 7 7 6 15 14 14 18 18 17 18 19 17 16 15 15 14 13 14 13 12 12 11 10 10 9 9 8 8 7 8 9 8
4 3 2 2 9 10 20 25 23 11 5 8 5 15 12 14 17 16 17 17 19 18 17 16 15 14 14 14 13 13 13 12 11 10 9 9 8 7 7 7 8 7 6 7
1 8 9 7 24 21 14 24 24 13 9 4 16 22 18 17 20 19 19 19 19 18 17 15 14 13 13 12 11 11 12 11 10 9 8 7 5 6 6 6 6 6 7 8
5 3 5 12 26 20 17 17 20 14 11 13 21 16 15 17 19 19 21 20 19 17 16 15 14 12 11 11 10 9 9 7 6 7 7 6 6 5 6 7 7 7 8 8
5 2 10 5 22 19 10 12 11 7 3 21 17 14 24 20 19 18 20 19 18 16 14 13 12 10 10 8 6 7 6 5 6 6 5 5 4 5 6 7 6 7 7 7
4 5 4 5 20 8 5 4 11 12 8 5 21 25 21 21 19 15 15 19 17 15 13 11 9 9 8 6 6 5 6 6 6 6 6 6 6 5 7 6 7 7 6 6
10 3 6 5 4 9 9 11 7 8 8 15 28 24 26 26 24 18 13 13 15 13 10 9 9 8 7 7 6 6 7 7 6 7 7 7 7 7 7 7 7 6 6 6
10 9 4 5 5 7 7 7 8 7 6 10 18 25 29 24 14 7 11 13 14 12 8 8 8 7 6 7 5 6 7 7 7 7 7 7 6 7 7 7 7 6 6 6
4 5 7 6 5 6 9 14 12 6 9 18 20 20 20 8 10 19 15 13 12 10 10 8 8 8 8 6 6 8 7 7 7 8 7 7 6 6 6 7 6 6 6 6
4 3 4 2 4 5 18 10 4 10 21 19 17 17 22 23 22 17 15 13 11 10 10 9 8 6 5 6 6 6 7 8 7 6 6 5 6 6 5 6 6 6 6 7
3 4 4 6 4 5 9 11 14 17 22 18 20 18 24 24 19 17 14 13 11 10 9 6 6 7 7 7 6 7 7 8 7 6 6 6 5 5 6 6 6 6 7 7
3 6 5 3 9 9 11 16 19 19 23 21 19 20 17 23 17 17 14 11 10 9 8 6 7 8 7 6 7 7 8 8 7 7 7 7 6 7 6 4 5 6 7 7
6 6 6 9 9 14 17 16 18 21 22 24 19 18 19 18 18 16 14 12 10 9 8 7 7 6 7 8 8 9 9 9 8 8 7 7 5 7 6 6 6 6 8 8
9 1 1 5 10 13 8 11 14 22 21 19 21 21 16 17 18 16 13 11 10 9 8 7 7 7 8 8 9 9 9 9 9 7 6 7 4 5 5 4 3 9 8 11
Wind_Direction
190 192 205 202 211 228 217 193 204 191 173 194 205 204 234 249 216 237 246 225 223 234 250 214 200 184 182 177 174 177 180 182 175 172 185 210 215 206 214 218 222 215 208 218
178 221 214 210 209 215 198 200 202 191 194 197 189 215 229 221 227 227 236 237 228 232 251 247 191 190 188 185 191 176 179 173 174 176 173 162 171 194 203 198 228 253 275 270
198 202 212 205 199 205 217 203 180 154 152 198 166 208 213 211 225 218 243 238 233 226 231 245 229 213 207 200 190 175 165 161 164 155 136 114 123 126 196 219 256 269 260 254
218 224 186 193 205 196 205 203 185 172 182 194 217 206 207 216 203 206 223 222 226 217 233 246 229 211 204 199 168 159 161 157 155 155 153 148 154 164 122 49 338 322 311 287
208 202 199 199 207 198 203 180 192 187 203 201 180 224 142 177 201 204 172 112 254 287 274 252 247 269 151 137 125 134 144 151 157 162 164 160 160 128 105 102 70 61 49 29
224 205 187 200 196 188 167 166 179 161 185 235 192 216 187 178 143 142 118 62 10 12 20 44 105 109 110 115 110 115 116 108 113 123 129 136 146 140 124 93 94 76 65 52
202 213 198 193 183 183 174 158 155 179 198 217 182 193 103 116 19 208 145 103 63 44 70 96 91 93 100 104 105 106 108 95 101 98 93 95 93 92 97 92 79 84 65 45
182 200 214 182 188 176 192 179 174 176 184 165 177 196 146 66 76 108 107 95 81 76 80 87 95 101 103 105 107 112 109 103 100 97 92 86 84 86 85 80 85 71 59 50
189 205 187 191 179 169 184 193 180 134 154 160 158 147 177 138 109 108 105 95 87 88 93 91 93 93 94 92 93 101 103 99 95 94 92 86 87 89 91 81 74 69 56 59
188 189 180 183 180 193 183 174 177 178 165 168 170 174 151 168 143 124 114 106 101 100 95 92 90 91 91 91 92 91 90 92 95 94 87 85 88 86 88 84 75 66 51 39
355 203 171 170 191 183 179 186 201 117 217 164 154 151 32 153 148 130 118 106 106 99 94 92 89 87 90 90 88 86 86 88 83 79 82 81 77 76 73 68 59 50 42 32
244 19 153 175 254 193 177 188 181 174 154 65 154 115 65 132 130 125 111 110 104 99 97 92 91 90 87 84 82 80 77 76 76 78 77 73 71 68 63 58 48 33 29 22
215 147 137 146 67 356 180 186 194 121 153 171 145 143 132 122 110 113 118 115 109 105 99 96 88 82 79 76 73 71 71 68 67 70 72 65 56 51 45 35 20 16 13 4
302 150 110 186 138 146 170 185 178 187 192 155 106 138 150 134 125 127 122 118 114 108 100 92 83 77 72 66 65 66 65 61 62 63 62 56 50 40 29 12 8 0 352 345
287 160 189 230 142 162 164 179 181 182 150 180 149 153 158 147 140 136 125 124 121 109 101 94 89 81 73 68 65 61 56 47 42 45 45 37 31 20 11 4 351 354 349 354
346 127 159 139 152 172 169 173 189 186 94 93 135 122 136 123 127 137 133 129 117 111 107 101 94 85 76 68 59 56 50 41 36 40 30 12 2 354 2 357 352 351 353 351
283 215 128 98 155 150 177 168 142 122 119 143 147 149 131 136 138 142 137 127 123 118 108 101 93 83 68 61 52 50 41 29 34 27 16 359 354 352 1 359 352 358 350 340
332 100 61 106 121 142 129 24 139 118 120 130 115 138 134 128 117 115 125 124 119 113 108 96 91 77 58 45 45 44 37 33 31 28 13 5 352 357 7 1 6 351 344 346
17 51 86 103 97 119 99 116 138 150 57 142 126 122 121 119 102 72 85 95 101 99 90 84 70 60 46 38 36 43 41 28 21 15 6 357 356 354 352 2 357 343 342 355
26 26 105 140 92 139 46 99 32 133 101 122 132 136 141 149 142 129 111 101 94 85 79 75 65 66 53 34 25 36 34 23 12 356 345 339 342 340 347 353 341 339 346 357
10 10 68 91 89 88 12 326 314 208 150 147 144 142 146 123 105 124 114 96 87 84 82 75 67 55 42 28 31 40 25 20 357 349 345 326 342 335 348 334 338 348 358 358
48 358 39 71 107 131 352 318 285 112 121 135 128 111 109 113 114 113 108 98 90 87 78 67 67 64 46 36 34 29 16 351 343 347 320 344 354 352 347 340 356 7 4 14
62 357 95 24 75 14 6 68 84 110 110 114 109 113 119 116 111 109 105 98 91 83 78 81 80 72 53 41 30 27 11 1 355 355 0 2 2 10 354 356 12 21 19 17
70 15 85 128 27 49 61 71 74 87 97 98 101 109 109 108 112 107 104 100 94 92 87 79 73 62 54 43 38 28 17 8 8 19 19 6 10 358 19 22 39 37 28 21
3 2 100 88 113 77 48 67 90 93 91 90 90 94 99 112 106 107 105 102 98 93 82 75 70 61 51 44 38 27 13 19 20 22 24 13 8 7 23 38 28 75 58 42
338 285 344 82 78 97 72 73 84 86 89 95 100 102 103 109 108 107 100 97 93 86 78 73 66 56 48 43 38 31 29 27 22 23 33 24 11 7 31 21 53 78 80 62